GFSMW_925_temp_021.txt.gz
Temp
27 27 26 26 26 25 24 24 24 24 24 23 23 24 24 24 25 25 26 26 25 25 25 25 24 24 24 24 23 23 23 23 23 24 23 23 23 23 24 24 24 23 23
27 27 27 27 26 25 25 24 24 24 24 23 24 24 25 25 26 26 25 25 25 25 25 24 24 24 23 23 23 23 23 23 23 23 21 18 22 22 23 23 23 23 23
27 27 27 27 27 25 25 24 25 25 25 24 24 24 25 25 25 25 25 25 25 25 25 24 24 24 23 23 23 23 23 23 22 23 22 17 18 20 22 22 23 23 22
29 28 28 27 27 26 25 24 24 24 25 24 24 24 24 24 25 25 26 25 25 25 25 24 24 24 23 23 23 23 23 23 23 22 22 22 22 18 19 21 22 22 22
29 29 27 28 27 26 25 24 24 24 25 24 24 24 24 25 26 26 26 26 25 26 25 25 24 24 24 23 23 23 23 23 23 23 22 22 21 21 18 17 21 22 22
29 29 30 28 27 27 25 24 24 24 24 25 24 24 24 24 25 25 25 25 26 25 25 25 24 24 23 23 23 23 22 23 23 23 23 23 22 21 20 16 18 19 22
30 29 29 29 28 27 25 24 24 23 23 24 24 24 24 25 26 26 25 25 25 25 25 24 24 23 23 23 23 23 23 22 22 23 22 22 22 22 22 21 18 19 21
30 30 30 29 29 27 26 25 24 24 23 23 23 24 24 24 25 26 26 26 26 26 25 24 24 24 23 23 23 23 23 22 22 22 22 22 22 22 22 23 21 17 18
31 31 30 30 30 29 27 25 24 24 23 23 23 23 24 24 24 25 26 26 26 26 25 25 25 24 23 23 23 23 22 22 22 22 22 22 22 22 22 22 22 22 17
31 31 31 31 30 29 28 26 26 25 24 24 23 23 24 24 24 26 26 26 26 26 25 25 25 24 24 23 23 23 22 22 22 22 21 21 21 21 21 22 22 22 21
31 32 31 32 31 30 28 26 26 25 25 24 24 24 24 24 24 25 26 26 26 25 25 25 25 24 24 23 23 23 23 22 22 22 21 21 21 21 21 21 21 21 21
32 32 33 32 31 30 29 26 26 25 26 25 24 24 24 23 23 24 26 26 26 25 25 25 24 25 24 24 23 23 23 22 22 22 21 21 21 21 21 21 21 21 21
30 31 29 29 30 30 29 27 26 26 26 25 24 24 24 23 23 24 25 25 25 25 25 25 25 25 24 24 23 23 23 23 23 22 22 22 21 21 21 21 21 21 21
30 28 28 28 29 30 29 27 26 26 26 25 24 24 24 23 23 24 24 24 24 25 25 25 25 25 25 24 24 23 23 23 23 22 22 22 21 21 21 21 21 21 20
30 28 31 28 28 29 29 28 27 26 26 25 24 24 24 24 23 23 24 24 24 23 24 24 24 24 24 24 24 23 23 23 23 21 21 22 21 22 21 21 21 21 20
31 31 32 31 30 30 29 28 27 26 26 25 25 24 24 24 23 23 23 23 23 23 23 23 24 24 24 24 25 24 23 23 22 21 22 21 21 21 21 21 21 21 20
30 28 32 33 32 31 30 29 27 27 26 25 25 25 24 24 23 23 22 22 22 22 23 23 23 23 24 25 25 24 23 22 21 21 21 21 21 21 21 21 21 20 20
28 28 31 29 31 31 30 30 28 27 26 25 25 25 24 24 23 23 22 22 22 22 22 22 23 24 25 25 24 24 22 21 21 21 21 21 21 21 21 21 20 20 20
28 27 29 32 32 31 30 29 28 27 26 25 25 25 24 24 23 23 22 22 22 21 21 22 23 24 23 24 24 23 20 19 20 20 20 20 20 20 21 20 20 20 19
26 26 27 29 30 31 31 29 28 27 26 26 25 25 24 24 23 23 23 22 22 22 21 22 23 23 23 24 24 23 20 18 19 21 20 20 20 20 20 20 20 19 19
26 28 27 26 29 31 30 28 28 27 27 26 26 25 25 24 24 23 23 22 22 22 22 22 22 23 24 24 22 21 20 20 20 20 20 20 20 20 20 20 19 19 20
21 22 24 24 26 28 29 28 27 28 28 27 26 26 25 24 24 23 22 22 22 22 22 21 21 22 23 23 21 21 20 20 20 20 20 20 20 20 19 19 19 19 19
19 20 20 21 24 28 29 27 28 28 28 27 27 25 25 24 24 22 22 22 22 22 21 20 20 19 20 20 21 21 20 19 19 20 19 19 19 19 19 19 18 17 18
18 18 18 19 17 18 21 25 28 28 27 27 26 26 24 24 23 23 22 22 22 21 20 20 19 18 19 20 19 20 19 19 19 19 18 18 18 18 18 18 16 16 16
16 18 18 18 18 20 20 20 22 25 26 26 26 25 24 24 22 22 22 22 21 20 20 19 19 18 17 19 21 20 20 19 19 18 17 17 17 17 16 16 16 16 16
16 16 18 19 20 20 21 24 23 22 25 25 23 23 22 18 17 17 17 19 19 19 19 20 20 20 20 21 21 20 19 19 18 16 16 16 16 17 17 17 17 17 16

GFSMW_925_temp_024.txt.gz
Temp
25 25 25 24 24 23 23 23 23 23 23 22 22 22 23 23 24 25 25 25 26 25 24 24 23 23 23 23 23 23 22 23 23 23 23 23 23 23 23 23 23 23 23
25 25 25 25 24 24 24 23 24 24 23 24 24 23 24 24 24 25 25 26 26 25 24 24 24 24 23 23 23 23 23 22 22 22 21 20 22 22 23 23 23 23 23
25 25 25 25 25 24 23 23 24 24 25 24 23 22 23 23 24 24 25 25 25 25 25 24 24 24 23 23 23 23 22 23 22 22 22 19 20 19 22 22 22 22 22
26 26 26 25 25 25 24 24 23 23 24 24 23 23 23 22 23 24 25 25 25 25 25 24 24 24 23 23 23 22 22 23 22 22 21 22 21 20 20 22 21 22 22
27 26 26 26 26 26 24 24 24 24 24 24 24 24 23 23 24 24 25 25 25 25 25 25 24 24 23 24 23 22 22 23 23 23 22 21 20 20 19 20 21 21 22
28 27 27 27 26 26 25 24 23 23 23 24 24 24 23 23 24 24 24 25 25 25 25 25 24 24 23 24 23 22 22 23 22 22 22 23 22 20 20 18 18 20 22
28 28 27 26 27 26 25 24 23 23 23 23 23 23 24 24 24 25 25 25 25 25 25 24 24 24 24 24 23 22 22 22 22 22 22 22 22 22 21 21 18 19 20
29 29 28 27 27 26 25 24 23 23 23 23 23 23 24 23 24 25 26 26 26 26 26 25 25 24 24 24 23 23 23 22 22 22 22 22 22 22 22 22 21 19 18
29 29 29 29 27 27 26 24 24 23 23 23 23 23 23 23 23 24 26 26 26 26 26 25 25 24 24 23 23 23 22 22 22 22 22 22 22 22 22 22 22 22 20
30 30 29 29 29 28 26 25 24 23 23 23 23 23 23 24 24 24 25 26 26 26 26 25 25 25 24 24 23 23 22 22 22 22 21 21 21 21 21 21 22 21 21
30 30 30 30 29 29 27 26 25 24 24 23 23 23 23 23 23 23 25 26 26 26 25 25 25 25 24 24 23 23 22 22 22 21 21 21 21 21 21 21 21 21 21
29 30 30 30 30 29 29 26 25 25 24 23 23 23 23 22 22 23 24 26 26 25 25 25 25 25 25 24 24 23 22 22 22 22 21 21 21 21 21 21 20 21 21
27 28 29 29 29 29 28 27 26 26 25 24 23 23 23 22 22 23 24 25 25 26 25 25 25 25 24 24 24 24 23 23 23 22 22 22 21 21 20 20 20 20 20
25 26 27 29 29 29 28 28 26 26 25 25 23 23 23 23 23 23 24 24 25 25 25 25 25 25 25 24 24 24 23 23 23 22 22 22 21 21 21 20 20 20 20
25 24 26 27 26 27 28 27 26 26 26 25 24 24 23 23 23 22 23 24 24 25 25 25 24 24 25 25 24 24 24 23 23 22 22 22 21 21 21 21 21 20 20
26 25 26 26 25 27 27 27 26 26 26 25 24 24 24 23 23 23 23 23 23 23 23 23 23 23 24 25 25 25 24 23 22 22 22 21 21 21 21 21 20 20 20
26 25 26 27 27 27 27 27 27 26 25 25 24 24 24 23 23 22 22 23 22 22 23 22 22 23 24 24 24 25 24 24 23 22 21 21 21 21 21 21 20 20 19
25 25 26 28 29 29 29 28 27 26 25 25 24 24 23 23 23 22 22 22 22 22 21 22 22 22 23 24 24 24 23 23 23 23 22 22 21 21 21 20 20 20 20
25 25 26 28 29 31 31 29 27 26 25 25 24 24 23 23 23 22 22 22 22 21 21 21 21 22 23 24 24 23 22 21 22 22 21 21 21 21 20 20 19 19 19
25 24 26 27 28 29 30 28 27 25 25 25 25 24 24 23 23 23 23 22 22 21 21 20 22 24 23 24 24 23 22 19 19 19 20 21 20 20 19 19 19 19 19
25 26 26 25 25 28 28 26 26 25 26 25 25 24 24 23 23 23 23 22 22 21 21 21 20 22 22 23 24 24 21 19 18 18 19 19 19 19 19 19 19 20 20
20 21 20 19 22 25 27 25 24 27 26 25 25 24 24 23 23 23 22 22 22 22 21 21 21 21 22 23 24 22 21 21 20 19 20 20 19 19 19 19 19 19 18
19 20 20 18 19 22 24 23 21 26 27 26 25 24 24 24 24 23 22 22 22 22 22 21 21 21 20 21 22 21 21 21 20 21 20 20 19 19 19 19 19 18 18
17 18 19 18 18 20 21 21 23 25 26 26 25 25 24 24 23 22 22 22 22 22 22 22 21 21 19 19 20 20 19 19 19 19 19 19 19 19 19 18 18 17 17
16 17 17 17 17 19 21 22 23 23 23 24 25 25 24 23 23 22 22 22 22 22 23 22 21 19 18 18 17 17 18 18 18 18 17 18 18 18 17 16 16 16 16
17 17 17 17 16 17 18 19 20 22 22 22 23 24 23 22 19 17 17 21 21 22 20 19 19 19 19 17 18 19 18 18 18 17 16 16 17 17 16 15 15 15 15

GFSMW_925_temp_030.txt.gz
Temp
32 30 29 29 28 27 26 25 24 24 24 24 24 25 25 25 25 25 25 24 24 24 24 25 24 24 24 24 24 24 24 25 24 26 26 26 25 25 26 26 26 25 25
33 31 30 29 28 27 26 25 24 24 23 24 25 25 26 26 26 26 25 24 24 24 24 24 25 24 26 23 23 23 25 25 25 27 27 28 27 26 26 26 26 25 25
33 32 31 30 29 28 27 26 25 24 24 25 24 24 25 25 26 26 26 25 24 24 24 25 25 24 24 26 23 23 24 26 25 24 26 28 29 28 26 25 26 25 25
34 33 32 30 30 29 27 26 25 24 24 24 25 25 26 26 27 27 27 26 25 25 25 25 24 24 25 25 23 24 24 23 26 25 25 24 25 28 28 26 26 25 25
34 34 33 31 30 29 28 27 25 24 25 24 25 25 25 27 27 27 27 25 25 25 25 24 24 24 24 24 24 23 23 24 26 26 25 25 25 25 27 28 27 25 25
35 35 33 32 31 30 29 28 26 24 24 24 24 25 25 26 27 27 27 27 26 26 25 25 24 24 24 24 24 23 22 23 24 26 25 26 26 27 27 28 27 27 26
36 35 34 33 32 31 29 28 27 25 24 24 24 24 25 25 26 26 26 27 27 27 27 24 24 24 24 24 24 23 23 22 23 23 25 26 26 26 26 27 27 27 27
36 36 35 33 32 31 30 29 27 26 25 25 24 24 24 25 26 26 27 27 28 28 27 25 25 24 24 24 24 23 23 23 23 23 23 26 25 25 25 26 27 27 27
37 36 35 34 32 31 30 29 28 26 26 26 25 24 24 25 27 27 26 27 27 28 27 26 24 25 25 24 24 24 23 24 23 23 23 23 25 25 25 25 26 27 28
37 37 36 35 33 32 31 29 28 27 26 26 25 25 25 24 25 26 26 26 27 26 27 25 25 25 25 24 24 25 24 23 23 24 24 23 25 25 25 25 25 25 26
38 38 37 36 35 33 32 30 29 28 27 27 26 26 26 26 25 25 25 25 26 26 26 26 25 25 25 24 24 24 25 23 23 23 24 22 23 25 25 24 25 25 25
40 39 39 38 36 34 33 32 30 29 28 28 26 26 26 26 26 25 25 25 25 25 25 25 25 25 25 25 24 24 25 24 23 23 23 23 23 22 23 24 24 24 25
38 38 39 38 37 35 34 33 31 31 30 28 27 27 26 26 26 25 25 25 25 25 26 25 25 25 25 25 24 24 24 25 24 24 23 23 23 22 24 23 24 23 23
36 37 38 38 37 36 34 33 33 32 31 30 29 28 27 26 26 26 25 25 25 25 25 25 25 25 25 25 25 25 25 25 24 24 24 23 23 23 22 22 22 23 24
37 36 36 36 36 35 34 32 32 32 32 31 30 29 27 27 26 26 25 25 25 25 25 25 25 25 26 26 25 25 25 25 25 24 24 23 23 23 22 22 22 23 22
37 38 37 36 35 34 33 33 31 31 31 31 30 29 28 27 26 26 25 25 25 25 25 25 25 25 26 27 26 25 25 25 25 24 24 23 23 22 22 22 23 22 22
37 37 37 38 36 35 33 32 31 31 30 30 29 28 28 26 26 26 25 25 25 25 25 25 25 25 25 26 26 25 25 25 25 24 24 24 24 22 21 20 22 22 21
37 37 39 39 37 36 37 34 33 30 30 29 29 28 27 27 26 26 25 25 25 25 25 25 25 25 25 25 26 25 24 25 25 25 24 24 25 23 21 21 19 20 20
37 38 38 37 37 36 35 34 32 31 29 29 28 28 27 27 26 26 25 25 25 25 25 25 25 25 25 25 25 25 24 25 25 25 24 24 24 23 22 21 21 21 21
37 37 37 36 36 34 34 33 33 31 29 29 28 28 27 27 26 26 26 25 25 25 26 25 25 25 25 25 24 24 25 25 25 25 24 24 24 23 22 20 21 21 21
35 34 34 34 34 32 33 33 32 32 30 29 29 28 27 27 26 26 25 25 25 26 25 26 26 25 25 24 25 24 23 26 26 27 25 25 22 22 21 21 20 20 21
34 33 31 32 32 31 31 32 31 31 30 30 29 28 27 27 27 26 26 25 25 25 25 24 25 25 25 24 24 24 23 25 27 27 27 25 23 21 20 21 20 19 20
32 31 32 31 29 29 29 30 29 29 29 29 29 28 27 27 27 26 25 25 25 26 25 26 26 27 26 25 24 24 23 22 24 27 26 23 22 21 19 20 19 19 20
29 30 30 30 28 28 28 29 27 27 28 28 28 27 27 27 27 27 26 26 27 26 27 28 28 28 27 26 24 22 22 22 21 23 22 21 20 19 18 18 18 18 21
27 28 28 27 26 25 25 25 25 26 27 28 28 28 28 27 27 27 28 28 28 29 27 28 28 28 26 24 23 21 20 20 19 19 19 18 17 16 17 16 17 18 20
25 25 25 25 24 24 24 23 23 23 26 27 29 29 30 30 28 29 27 27 27 27 27 27 27 28 27 26 22 19 20 19 18 17 16 16 16 16 16 16 16 18 19

GFSMW_925_temp_033.txt.gz
Temp
35 33 32 31 30 30 28 27 27 26 26 26 26 27 27 27 27 28 27 27 26 25 25 26 26 26 26 26 25 25 25 27 26 27 27 27 27 27 28 28 28 27 25
35 34 32 32 31 30 28 27 26 26 25 26 26 27 27 28 27 27 27 26 26 25 25 25 25 26 24 25 24 25 25 27 26 27 28 28 28 28 28 28 27 27 27
36 34 33 32 31 30 29 27 26 26 25 26 26 26 27 27 28 28 27 26 26 26 26 25 26 26 26 25 24 25 26 28 26 26 27 29 26 28 27 26 27 26 27
37 35 34 33 32 31 29 28 26 25 25 25 27 27 27 28 28 28 28 28 26 26 26 25 25 25 26 25 25 25 26 26 27 26 27 25 25 24 25 28 27 26 26
37 36 35 33 33 31 30 28 26 25 26 25 26 27 27 28 28 29 28 28 27 26 26 26 25 25 25 27 25 25 24 26 27 27 27 27 27 27 27 24 27 27 27
38 37 35 34 33 32 31 29 27 25 25 25 25 26 27 27 29 28 29 28 28 27 26 26 26 24 25 26 25 25 24 24 26 27 27 28 28 28 28 29 28 27 27
39 37 36 35 33 33 31 30 28 26 25 25 25 25 26 26 28 28 28 29 29 29 28 26 25 25 25 26 25 24 25 24 25 24 27 27 28 28 28 28 29 29 28
40 39 37 36 34 33 32 31 29 27 26 25 25 25 25 27 27 28 29 28 29 29 29 26 26 25 26 25 25 25 25 25 24 24 24 27 27 27 27 27 28 28 28
40 39 38 36 35 33 32 31 30 27 26 26 26 25 25 26 27 27 27 28 28 30 29 27 26 26 26 25 25 25 25 26 24 24 24 24 27 27 27 27 27 28 28
41 40 39 37 36 34 33 31 30 28 27 27 26 26 26 25 26 27 27 28 29 28 29 28 27 26 26 25 25 26 26 25 25 25 25 24 26 27 27 27 27 27 27
41 40 39 38 36 35 34 32 31 29 28 27 27 27 26 26 26 27 27 27 27 28 28 27 27 26 26 25 25 25 27 25 24 25 25 24 24 27 27 27 27 27 27
42 41 40 39 38 36 35 34 32 31 29 28 28 27 27 27 27 26 27 27 27 27 27 27 26 26 26 26 25 25 27 26 25 24 25 25 24 23 25 26 26 26 27
41 41 41 40 39 38 36 35 34 33 31 29 29 28 28 28 28 27 26 27 27 27 27 27 27 26 26 26 26 25 25 26 26 25 24 24 24 24 25 25 26 26 25
40 41 41 41 40 39 37 36 35 34 33 32 31 30 29 28 28 28 27 27 27 26 26 27 26 26 26 26 26 26 25 25 26 25 25 24 24 24 23 24 24 25 25
38 38 39 39 39 39 37 36 36 35 34 33 32 31 29 29 28 28 28 27 27 26 26 26 27 26 26 27 26 26 26 25 25 26 25 25 24 24 23 23 24 24 24
38 38 39 38 38 39 37 36 35 35 34 34 33 32 30 29 28 28 27 27 27 27 26 26 26 27 27 27 27 26 26 26 25 26 26 25 25 24 24 23 24 23 24
38 38 39 39 38 38 37 36 35 34 34 33 33 32 31 29 28 28 27 27 27 27 26 26 26 27 27 27 28 27 26 26 26 26 26 26 26 24 23 23 23 23 23
38 38 39 40 39 39 39 36 35 33 33 32 32 31 31 30 28 28 27 27 27 26 27 26 26 26 27 27 27 28 27 26 26 26 26 26 26 26 23 23 22 22 22
38 38 39 40 39 39 39 38 36 35 32 32 31 31 30 30 29 28 27 27 27 27 26 26 26 26 26 27 26 27 26 26 26 26 26 26 26 26 24 23 23 21 21
38 38 38 39 39 38 38 38 37 36 33 31 31 30 30 29 29 28 27 27 27 27 27 26 26 26 26 26 26 26 26 27 26 26 26 26 25 25 25 23 23 23 21
33 34 35 36 36 36 37 36 36 36 34 32 31 30 29 29 28 28 27 27 27 27 26 27 27 26 26 26 26 26 25 27 27 27 27 26 25 25 25 24 23 23 22
33 33 35 35 34 34 35 34 34 34 34 33 31 30 29 29 29 28 27 27 27 26 27 26 27 27 26 26 25 25 26 26 27 28 28 28 26 25 24 24 23 22 22
33 34 35 34 33 33 32 32 32 32 32 31 30 30 29 28 29 28 27 27 27 27 27 28 28 28 29 27 26 25 25 25 25 27 29 28 28 26 24 23 22 21 21
32 32 32 33 32 30 30 30 31 30 30 30 30 29 29 28 28 28 28 28 29 28 28 30 29 30 29 29 29 26 25 24 24 24 26 27 28 27 22 22 21 20 19
29 30 30 31 29 28 28 28 29 29 29 29 29 29 29 29 29 28 30 30 29 30 30 30 30 31 31 31 30 30 27 22 21 22 21 20 18 18 18 19 19 18 18
28 27 27 27 27 26 26 25 25 26 29 29 30 31 31 31 29 30 28 28 28 28 29 29 28 28 29 29 29 29 28 24 22 21 19 18 18 18 17 17 17 18 18

GFSMW_925_temp_036.txt.gz
Temp
34 33 33 32 32 30 28 28 28 27 26 25 25 25 26 27 27 27 28 27 26 25 25 25 25 25 25 25 25 25 26 26 27 27 27 27 27 27 28 27 26 25 24
35 34 33 32 32 30 28 27 27 27 26 26 25 26 27 27 27 27 28 27 26 26 25 25 25 26 26 25 25 25 25 26 27 26 27 24 26 28 27 27 27 26 26
35 34 33 33 32 30 29 27 27 27 26 26 26 26 27 27 27 27 27 27 26 26 25 25 25 26 25 25 25 25 25 26 27 26 26 23 24 26 27 27 27 27 26
36 35 34 33 32 31 29 27 26 26 26 26 26 26 26 27 27 28 28 27 26 26 25 25 25 25 25 25 25 25 25 26 26 26 26 26 26 24 24 27 26 26 26
37 35 34 33 33 31 29 28 26 26 25 25 26 26 26 27 28 28 28 28 27 26 26 26 25 25 25 25 25 25 26 25 26 27 27 27 26 27 25 24 25 26 26
38 36 35 33 33 32 30 28 26 25 25 25 26 26 26 27 28 28 28 28 27 26 26 26 26 25 25 25 25 25 25 25 26 26 27 27 27 27 27 25 25 26 27
38 37 35 34 33 32 31 29 27 25 25 25 24 26 26 27 27 28 28 28 28 26 26 26 25 25 25 25 25 25 25 25 25 26 26 27 27 28 28 28 27 26 26
40 38 35 34 33 33 31 29 27 26 25 25 25 25 25 26 27 27 28 28 28 28 28 27 26 25 25 25 25 25 25 24 24 24 26 26 27 27 27 27 27 25 27
40 39 37 35 33 33 31 30 28 26 25 25 25 25 25 26 26 27 28 28 29 29 29 28 26 26 25 25 25 25 25 25 24 24 24 26 26 27 27 27 27 27 24
41 40 38 36 34 33 32 31 29 27 26 26 25 25 25 25 26 27 27 28 28 29 29 28 27 26 25 25 25 25 25 25 25 24 24 25 26 26 27 27 27 27 27
41 40 38 37 35 34 33 31 30 28 27 26 26 26 25 25 25 26 27 27 28 28 29 27 26 26 26 25 25 25 26 25 25 25 25 25 25 26 27 27 27 27 27
41 41 40 38 37 35 34 32 31 30 28 27 26 26 26 26 25 25 26 27 27 28 28 28 27 26 26 25 25 25 25 26 25 25 25 25 24 25 26 26 27 27 27
41 40 40 39 38 36 35 34 32 31 30 28 27 27 26 26 26 26 26 27 27 27 27 27 27 27 26 25 25 25 25 26 25 24 24 25 24 24 25 26 26 26 26
40 40 40 38 38 37 35 34 33 33 31 30 28 28 27 27 26 27 26 26 27 26 27 27 27 27 26 26 25 25 25 25 26 25 24 24 24 24 24 25 25 26 25
40 39 39 37 36 36 35 35 35 34 33 32 30 29 28 28 27 27 27 26 26 26 26 27 27 26 26 26 26 26 25 25 25 26 26 25 24 24 24 24 24 25 25
39 39 38 38 39 36 35 35 35 35 34 33 32 30 29 28 28 28 27 27 26 26 26 26 26 27 26 26 26 26 26 25 25 25 25 25 25 24 24 24 24 24 24
38 38 38 38 37 38 37 36 35 35 34 33 32 32 30 29 28 28 28 27 27 26 26 26 26 26 26 27 27 27 26 26 26 25 25 25 25 25 24 24 24 24 24
37 37 38 38 38 38 39 37 36 35 34 33 33 32 31 30 29 28 28 27 27 27 26 26 26 26 26 26 27 27 27 26 26 26 25 25 26 25 25 24 24 23 24
36 37 38 38 39 38 38 37 36 34 33 33 32 32 31 30 29 28 28 27 27 27 27 26 26 26 26 26 26 27 27 26 26 26 26 25 25 25 26 24 22 22 23
33 33 34 35 38 39 39 35 35 34 33 32 32 32 31 31 30 29 28 27 27 27 27 27 26 26 26 26 26 26 26 26 26 26 26 26 25 25 25 25 23 22 22
32 32 33 33 35 35 35 35 36 34 34 32 32 31 31 30 30 29 28 28 27 27 27 27 27 26 26 26 26 26 26 26 26 26 26 26 26 26 25 25 24 23 22
32 33 33 33 33 34 34 33 33 36 35 35 32 31 30 29 30 29 28 28 27 27 27 26 26 27 26 26 26 26 26 26 26 27 27 27 26 26 26 25 25 24 23
32 32 33 33 33 33 33 32 32 32 33 33 32 31 30 29 29 29 28 27 27 27 27 27 27 27 27 27 27 26 26 26 25 25 26 27 27 27 26 26 25 24 23
30 31 30 31 32 32 31 30 30 31 31 32 31 30 30 29 28 28 28 28 28 27 27 28 27 28 28 28 27 28 27 26 26 25 25 25 26 25 24 25 25 24 22
28 29 29 29 29 28 27 27 28 30 30 30 30 30 29 29 28 28 29 28 28 28 28 28 28 29 29 28 26 28 28 27 27 25 24 23 23 24 22 21 20 22 21
25 27 28 28 27 27 26 25 25 26 29 29 29 30 30 30 29 28 28 29 29 28 29 29 28 28 26 26 27 27 27 27 26 22 23 23 22 21 21 19 20 20 20